TimeCDT,TemperatureF,Dew PointF,Humidity,Sea Level PressureIn,VisibilityMPH,Wind Direction,Wind SpeedMPH,Gust SpeedMPH,PrecipitationIn,Events,Conditions,WindDirDegrees,DateUTC
12:15 AM,64.4,46.4,52,30.00,10.0,South,6.9,-,N/A,,Clear,170,2011-10-26 05:15:00
12:35 AM,62.6,46.4,55,30.00,10.0,South,5.8,-,N/A,,Clear,170,2011-10-26 05:35:00
12:55 AM,62.6,46.4,55,30.00,10.0,South,5.8,-,N/A,,Clear,170,2011-10-26 05:55:00
1:15 AM,62.6,46.4,55,30.00,10.0,South,6.9,-,N/A,,Clear,170,2011-10-26 06:15:00
1:55 AM,64.4,44.6,49,30.00,10.0,South,6.9,-,N/A,,Clear,180,2011-10-26 06:55:00
2:15 AM,64.4,44.6,49,29.99,10.0,South,8.1,-,N/A,,Clear,190,2011-10-26 07:15:00
2:35 AM,64.4,44.6,49,29.99,10.0,South,9.2,-,N/A,,Clear,190,2011-10-26 07:35:00
2:55 AM,64.4,44.6,49,29.99,10.0,South,6.9,-,N/A,,Partly Cloudy,190,2011-10-26 07:55:00
3:15 AM,64.4,44.6,49,29.98,10.0,South,6.9,-,N/A,,Partly Cloudy,180,2011-10-26 08:15:00
3:35 AM,64.4,44.6,49,29.98,10.0,South,6.9,-,N/A,,Partly Cloudy,180,2011-10-26 08:35:00
3:55 AM,64.4,44.6,49,29.98,10.0,SSW,8.1,-,N/A,,Scattered Clouds,200,2011-10-26 08:55:00
4:15 AM,64.4,44.6,49,29.98,10.0,South,8.1,-,N/A,,Scattered Clouds,190,2011-10-26 09:15:00
4:35 AM,64.4,44.6,49,29.98,10.0,SSW,8.1,-,N/A,,Partly Cloudy,200,2011-10-26 09:35:00
4:55 AM,62.6,44.6,52,29.98,10.0,South,5.8,-,N/A,,Clear,190,2011-10-26 09:55:00
5:15 AM,62.6,44.6,52,29.98,10.0,South,5.8,-,N/A,,Clear,190,2011-10-26 10:15:00
5:35 AM,62.6,44.6,52,29.98,10.0,South,4.6,-,N/A,,Clear,180,2011-10-26 10:35:00
5:55 AM,62.6,46.4,55,29.98,10.0,South,6.9,-,N/A,,Clear,170,2011-10-26 10:55:00
6:15 AM,60.8,46.4,59,29.98,10.0,South,5.8,-,N/A,,Clear,180,2011-10-26 11:15:00
6:35 AM,60.8,46.4,59,29.98,10.0,South,5.8,-,N/A,,Clear,170,2011-10-26 11:35:00
7:15 AM,62.6,48.2,59,29.98,10.0,SSW,4.6,-,N/A,,Mostly Cloudy,200,2011-10-26 12:15:00
7:35 AM,62.6,48.2,59,29.99,10.0,South,6.9,-,N/A,,Overcast,190,2011-10-26 12:35:00
7:55 AM,62.6,48.2,59,29.99,10.0,SSW,5.8,-,N/A,,Mostly Cloudy,200,2011-10-26 12:55:00
8:15 AM,62.6,48.2,59,29.99,10.0,South,5.8,-,N/A,,Mostly Cloudy,180,2011-10-26 13:15:00
8:35 AM,64.4,48.2,56,30.00,10.0,SSW,5.8,-,N/A,,Overcast,200,2011-10-26 13:35:00
8:55 AM,64.4,50.0,59,29.99,10.0,South,8.1,-,N/A,,Overcast,190,2011-10-26 13:55:00
9:15 AM,66.2,51.8,60,29.99,10.0,SSW,6.9,-,N/A,,Overcast,200,2011-10-26 14:15:00
9:35 AM,69.8,51.8,53,29.99,10.0,South,9.2,-,N/A,,Overcast,190,2011-10-26 14:35:00
9:55 AM,69.8,51.8,53,29.99,10.0,South,8.1,-,N/A,,Overcast,190,2011-10-26 14:55:00
10:15 AM,71.6,53.6,53,29.98,10.0,SSW,8.1,-,N/A,,Mostly Cloudy,200,2011-10-26 15:15:00
10:55 AM,73.4,53.6,50,29.98,10.0,SW,13.8,21.9,N/A,,Overcast,230,2011-10-26 15:55:00
11:15 AM,73.4,53.6,50,29.97,10.0,SW,15.0,18.4,N/A,,Mostly Cloudy,220,2011-10-26 16:15:00
11:35 AM,77.0,55.4,47,29.96,10.0,SW,12.7,-,N/A,,Mostly Cloudy,230,2011-10-26 16:35:00
11:55 AM,77.0,55.4,47,29.95,10.0,SW,13.8,21.9,N/A,,Overcast,220,2011-10-26 16:55:00
12:15 PM,78.8,55.4,44,29.94,10.0,SSW,6.9,19.6,N/A,,Scattered Clouds,200,2011-10-26 17:15:00
12:35 PM,75.2,55.4,50,29.93,10.0,SW,11.5,18.4,N/A,,Partly Cloudy,220,2011-10-26 17:35:00
12:55 PM,77.0,55.4,47,29.92,10.0,SW,12.7,18.4,N/A,,Mostly Cloudy,230,2011-10-26 17:55:00
1:15 PM,75.2,55.4,50,29.91,10.0,SW,11.5,18.4,N/A,,Overcast,230,2011-10-26 18:15:00
1:35 PM,78.8,55.4,44,29.90,10.0,SSW,10.4,18.4,N/A,,Overcast,210,2011-10-26 18:35:00
1:55 PM,77.0,55.4,47,29.90,10.0,SW,15.0,23.0,N/A,,Overcast,220,2011-10-26 18:55:00
2:15 PM,77.0,55.4,47,29.89,10.0,SW,10.4,18.4,N/A,,Overcast,220,2011-10-26 19:15:00
2:35 PM,77.0,55.4,47,29.88,10.0,SW,10.4,19.6,N/A,,Overcast,230,2011-10-26 19:35:00
2:55 PM,78.8,55.4,44,29.88,10.0,SW,9.2,-,N/A,,Mostly Cloudy,230,2011-10-26 19:55:00
3:15 PM,80.6,55.4,42,29.88,10.0,SW,9.2,-,N/A,,Clear,220,2011-10-26 20:15:00
3:35 PM,78.8,55.4,44,29.87,10.0,SW,11.5,17.3,N/A,,Mostly Cloudy,220,2011-10-26 20:35:00
3:55 PM,78.8,55.4,44,29.87,10.0,SW,10.4,16.1,N/A,,Mostly Cloudy,220,2011-10-26 20:55:00
4:15 PM,80.6,55.4,42,29.87,10.0,SW,15.0,18.4,N/A,,Scattered Clouds,230,2011-10-26 21:15:00
4:35 PM,78.8,55.4,44,29.87,10.0,SW,11.5,-,N/A,,Mostly Cloudy,220,2011-10-26 21:35:00
4:55 PM,78.8,55.4,44,29.87,10.0,SSW,8.1,-,N/A,,Partly Cloudy,210,2011-10-26 21:55:00
5:15 PM,77.0,55.4,47,29.87,10.0,SW,9.2,-,N/A,,Partly Cloudy,230,2011-10-26 22:15:00
5:35 PM,75.2,55.4,50,29.86,10.0,SSW,6.9,-,N/A,,Scattered Clouds,210,2011-10-26 22:35:00
5:55 PM,75.2,55.4,50,29.86,10.0,SSW,5.8,-,N/A,,Mostly Cloudy,200,2011-10-26 22:55:00
6:15 PM,75.2,55.4,50,29.85,10.0,South,8.1,-,N/A,,Scattered Clouds,190,2011-10-26 23:15:00
6:35 PM,75.2,53.6,47,29.86,10.0,SSW,4.6,-,N/A,,Clear,200,2011-10-26 23:35:00
7:15 PM,73.4,53.6,50,29.87,10.0,South,6.9,-,N/A,,Clear,190,2011-10-27 00:15:00
7:35 PM,73.4,55.4,53,29.87,10.0,SSW,4.6,-,N/A,,Mostly Cloudy,210,2011-10-27 00:35:00
7:55 PM,73.4,55.4,53,29.87,10.0,SSW,3.5,-,N/A,,Overcast,210,2011-10-27 00:55:00
8:15 PM,73.4,55.4,53,29.87,10.0,SSW,8.1,-,N/A,,Overcast,210,2011-10-27 01:15:00
8:35 PM,71.6,55.4,57,29.87,10.0,SW,3.5,-,N/A,,Overcast,220,2011-10-27 01:35:00
8:55 PM,71.6,55.4,57,29.87,10.0,SW,4.6,-,N/A,,Overcast,230,2011-10-27 01:55:00
9:15 PM,69.8,55.4,60,29.87,10.0,Calm,Calm,-,N/A,,Overcast,0,2011-10-27 02:15:00
9:35 PM,71.6,55.4,57,29.87,10.0,South,3.5,-,N/A,,Overcast,180,2011-10-27 02:35:00
9:55 PM,69.8,55.4,60,29.87,10.0,Calm,Calm,-,N/A,,Overcast,0,2011-10-27 02:55:00
10:15 PM,69.8,55.4,60,29.86,10.0,South,4.6,-,N/A,,Overcast,190,2011-10-27 03:15:00
10:35 PM,69.8,55.4,60,29.85,10.0,SSW,6.9,-,N/A,,Mostly Cloudy,200,2011-10-27 03:35:00
10:55 PM,71.6,55.4,57,29.85,10.0,SW,3.5,-,N/A,,Mostly Cloudy,220,2011-10-27 03:55:00
11:15 PM,69.8,55.4,60,29.87,10.0,NW,5.8,-,N/A,,Overcast,310,2011-10-27 04:15:00
11:35 PM,66.2,55.4,68,29.87,10.0,North,9.2,-,N/A,,Overcast,350,2011-10-27 04:35:00